EW3591 Weather Reports


time (UTC)temp
F
wind
direction
speed
knots
gust
knots
rain 1hr
in
rain 24hr
in
rain mn
in
humidity
%
barometer
mb
20260504044144 54 226 5.2 14.8 0.00 0.00 0.00 62 1007.5
20260504043944 55 217 5.2 14.8 0.00 0.00 0.00 62 1007.5
20260504043743 55 209 5.2 14.8 0.00 0.00 0.00 62 1007.5
20260504043543 55 216 6.1 20.0 0.00 0.00 0.00 62 1007.5
20260504043343 55 215 7.0 20.0 0.00 0.00 0.00 62 1007.6
20260504043142 55 185 6.1 20.0 0.00 0.00 0.00 62 1007.5
20260504042942 55 195 5.2 20.0 0.00 0.00 0.00 62 1007.4
20260504042742 55 225 5.2 20.0 0.00 0.00 0.00 62 1007.5
20260504042541 55 209 4.3 14.8 0.00 0.00 0.00 62 1007.5
20260504042341 55 203 5.2 14.8 0.00 0.00 0.00 62 1007.5
20260504042141 55 201 5.2 14.8 0.00 0.00 0.00 62 1007.5
20260504041941 55 211 6.1 14.8 0.00 0.00 0.00 62 1007.6
20260504041740 55 234 5.2 19.1 0.00 0.00 0.00 63 1007.6
20260504041540 55 211 5.2 21.7 0.00 0.00 0.00 63 1007.5
20260504041340 55 189 6.1 21.7 0.00 0.00 0.00 63 1007.5
20260504041139 55 191 7.0 21.7 0.00 0.00 0.00 63 1007.4
20260504040939 55 199 7.0 21.7 0.00 0.00 0.00 63 1007.5
20260504040739 55 199 6.1 21.7 0.00 0.00 0.00 63 1007.4
20260504040538 55 216 4.3 19.1 0.00 0.00 0.00 63 1007.5
20260504040338 55 195 7.0 19.1 0.00 0.00 0.00 63 1007.3
20260504040138 55 181 7.8 19.1 0.00 0.00 0.00 63 1007.4
20260504035938 55 192 7.8 19.1 0.00 0.00 0.00 63 1007.4
20260504035737 54 190 6.1 16.5 0.00 0.00 0.00 63 1007.5
20260504035537 54 198 7.8 16.5 0.00 0.00 0.00 63 1007.5
20260504035337 54 197 5.2 16.5 0.00 0.00 0.00 62 1007.6
20260504035136 54 235 5.2 13.9 0.00 0.00 0.00 62 1007.5
20260504034936 54 234 5.2 16.5 0.00 0.00 0.00 62 1007.6
20260504034736 54 216 4.3 16.5 0.00 0.00 0.00 61 1007.5
20260504034535 54 198 4.3 16.5 0.00 0.00 0.00 61 1007.5
20260504034335 54 197 6.1 16.5 0.00 0.00 0.00 61 1007.5
20260504034135 54 208 6.1 16.5 0.00 0.00 0.00 60 1007.5
20260504033935 54 218 5.2 13.9 0.00 0.00 0.00 60 1007.5
20260504033734 55 179 5.2 16.5 0.00 0.00 0.00 60 1007.5
20260504033534 55 200 6.1 16.5 0.00 0.00 0.00 59 1007.5
20260504033334 55 206 6.1 16.5 0.00 0.00 0.00 59 1007.5
20260504033133 55 214 5.2 16.5 0.00 0.00 0.00 59 1007.5
20260504032933 55 207 5.2 16.5 0.00 0.00 0.00 59 1007.5
20260504032733 55 191 5.2 13.9 0.00 0.00 0.00 59 1007.5
20260504032532 55 193 6.1 13.9 0.00 0.00 0.00 58 1007.6
20260504032332 55 211 5.2 18.2 0.00 0.00 0.00 58 1007.6
20260504032132 55 200 5.2 18.2 0.00 0.00 0.00 58 1007.6
20260504031932 55 206 5.2 18.2 0.00 0.00 0.00 58 1007.6
20260504031731 55 194 7.0 18.2 0.00 0.00 0.00 58 1007.6
20260504031531 55 205 7.8 18.2 0.00 0.00 0.00 58 1007.6
20260504031331 55 204 7.0 15.6 0.00 0.00 0.00 58 1007.7
20260504031130 55 229 5.2 15.6 0.00 0.00 0.00 58 1007.8
20260504030930 55 224 5.2 15.6 0.00 0.00 0.00 58 1007.7
20260504030730 55 215 6.1 15.6 0.00 0.00 0.00 58 1007.8
20260504030529 55 197 6.1 15.6 0.00 0.00 0.00 58 1007.9
20260504030329 55 191 6.1 15.6 0.00 0.00 0.00 58 1007.8
20260504030129 55 236 5.2 17.4 0.00 0.00 0.00 58 1007.8
20260504025929 55 203 5.2 17.4 0.00 0.00 0.00 58 1007.8
20260504025728 55 197 6.1 17.4 0.00 0.00 0.00 57 1007.7
20260504025528 55 195 6.1 17.4 0.00 0.00 0.00 57 1007.7
20260504025328 55 178 6.1 17.4 0.00 0.00 0.00 57 1007.7
20260504025127 55 204 5.2 15.6 0.00 0.00 0.00 57 1007.7
20260504024927 55 213 6.1 16.5 0.00 0.00 0.00 57 1007.6
20260504024727 55 222 5.2 18.2 0.00 0.00 0.00 57 1007.8
20260504024526 55 222 5.2 19.1 0.00 0.00 0.00 57 1007.8
20260504024326 55 196 7.0 19.1 0.00 0.00 0.00 57 1007.8
20260504024126 55 198 7.0 19.1 0.00 0.00 0.00 57 1007.7
20260504023926 55 187 8.7 20.9 0.00 0.00 0.00 56 1007.7
20260504023725 55 217 7.0 20.9 0.00 0.00 0.00 56 1007.8
20260504023525 55 201 7.0 20.9 0.00 0.00 0.00 56 1007.7
20260504023325 55 195 7.8 20.9 0.00 0.00 0.00 57 1007.8
20260504023124 55 197 6.1 20.9 0.00 0.00 0.00 57 1007.7
20260504022924 55 202 5.2 18.2 0.00 0.00 0.00 57 1007.8
20260504022724 55 209 5.2 18.2 0.00 0.00 0.00 57 1007.9
20260504022523 55 201 6.1 18.2 0.00 0.00 0.00 57 1007.8
20260504022323 55 193 7.0 18.2 0.00 0.00 0.00 57 1007.8
20260504022123 55 208 4.3 13.9 0.00 0.00 0.00 57 1007.8
20260504021923 55 230 4.3 14.8 0.00 0.00 0.00 57 1007.8
20260504021722 55 219 5.2 14.8 0.00 0.00 0.00 57 1007.8
20260504021522 55 201 6.1 14.8 0.00 0.00 0.00 57 1007.8
20260504021322 55 179 5.2 14.8 0.00 0.00 0.00 57 1007.8
20260504021121 55 205 5.2 14.8 0.00 0.00 0.00 57 1007.9
20260504020921 55 193 8.7 18.2 0.00 0.00 0.00 57 1007.8
20260504020721 55 205 5.2 18.2 0.00 0.00 0.00 57 1007.8
20260504020520 55 205 4.3 18.2 0.00 0.00 0.00 58 1007.8
20260504020320 55 204 5.2 18.2 0.00 0.00 0.00 57 1007.8
20260504020120 55 215 6.1 18.2 0.00 0.00 0.00 57 1007.8
20260504015920 55 208 5.2 16.5 0.00 0.00 0.00 57 1007.8
20260504015719 54 203 4.3 16.5 0.00 0.00 0.00 58 1007.8
20260504015519 55 220 5.2 13.9 0.00 0.00 0.00 58 1007.8
20260504015319 55 210 5.2 13.9 0.00 0.00 0.00 58 1007.8
20260504015118 55 188 6.1 13.9 0.00 0.00 0.00 58 1007.8
20260504014918 54 211 6.1 14.8 0.00 0.00 0.00 57 1007.8
20260504014718 54 197 6.1 14.8 0.00 0.00 0.00 58 1007.9
20260504014517 54 213 6.1 14.8 0.00 0.00 0.00 58 1007.8
20260504014317 54 196 5.2 15.6 0.00 0.00 0.00 58 1007.9
20260504014117 54 188 6.1 16.5 0.00 0.00 0.00 58 1007.8
20260504013917 54 205 5.2 16.5 0.00 0.00 0.00 58 1007.9
20260504013716 54 189 4.3 16.5 0.00 0.00 0.00 58 1007.8
20260504013516 54 208 5.2 16.5 0.00 0.00 0.00 58 1007.8
20260504013316 54 197 5.2 13.0 0.00 0.00 0.00 58 1007.8
20260504013115 54 190 4.3 13.0 0.00 0.00 0.00 58 1007.7
20260504012915 54 178 4.3 14.8 0.00 0.00 0.00 57 1007.7
20260504012715 54 194 5.2 14.8 0.00 0.00 0.00 57 1007.8
20260504012514 55 173 6.1 14.8 0.00 0.00 0.00 57 1007.6
20260504012314 55 195 5.2 14.8 0.00 0.00 0.00 57 1007.7
20260504012114 55 206 6.1 14.8 0.00 0.00 0.00 57 1007.7
20260504011914 55 197 6.1 13.0 0.00 0.00 0.00 57 1007.7
20260504011713 55 213 5.2 13.0 0.00 0.00 0.00 57 1007.7
20260504011513 55 205 3.5 13.9 0.00 0.00 0.00 57 1007.7
20260504011313 55 202 5.2 13.9 0.00 0.00 0.00 57 1007.7
20260504011112 55 188 5.2 13.9 0.00 0.00 0.00 57 1007.6
20260504010912 55 175 5.2 16.5 0.00 0.00 0.00 57 1007.5
20260504010712 55 193 5.2 17.4 0.00 0.00 0.00 57 1007.6
20260504010511 55 204 5.2 17.4 0.00 0.00 0.00 57 1007.7
20260504010311 55 207 5.2 17.4 0.00 0.00 0.00 57 1007.6
20260504010111 55 198 6.1 17.4 0.00 0.00 0.00 57 1007.7
20260504005911 55 207 6.1 13.0 0.00 0.00 0.00 57 1007.7
20260504005710 55 214 5.2 13.9 0.00 0.00 0.00 57 1007.8
20260504005510 55 198 4.3 14.8 0.00 0.00 0.00 57 1007.7
20260504005310 55 172 4.3 17.4 0.00 0.00 0.00 57 1007.6
20260504005109 55 179 3.5 17.4 0.00 0.00 0.00 57 1007.7
20260504004909 55 199 5.2 17.4 0.00 0.00 0.00 56 1007.7
20260504004709 55 213 5.2 17.4 0.00 0.00 0.00 56 1007.5
20260504004508 56 227 5.2 17.4 0.00 0.00 0.00 56 1007.7
20260504004308 56 206 4.3 14.8 0.00 0.00 0.00 56 1007.6
20260504004108 56 179 5.2 14.8 0.00 0.00 0.00 56 1007.5
20260504003907 56 213 5.2 14.8 0.00 0.00 0.00 56 1007.6
20260504003707 56 204 5.2 14.8 0.00 0.00 0.00 56 1007.6
20260504003507 56 209 5.2 14.8 0.00 0.00 0.00 56 1007.6
20260504003307 56 220 5.2 14.8 0.00 0.00 0.00 56 1007.5
20260504003106 56 214 6.1 13.9 0.00 0.00 0.00 56 1007.6
20260504002906 56 204 4.3 13.9 0.00 0.00 0.00 56 1007.5
20260504002706 56 205 4.3 13.9 0.00 0.00 0.00 56 1007.6
20260504002505 56 210 6.1 13.9 0.00 0.00 0.00 56 1007.4
20260504002305 56 219 5.2 12.2 0.00 0.00 0.00 56 1007.5
20260504002105 56 219 5.2 12.2 0.00 0.00 0.00 56 1007.5
20260504001904 56 189 4.3 12.2 0.00 0.00 0.00 57 1007.5
20260504001704 56 189 6.1 12.2 0.00 0.00 0.00 56 1007.6
20260504001504 56 189 4.3 12.2 0.00 0.00 0.00 57 1007.5
20260504001304 56 240 3.5 20.9 0.00 0.00 0.00 57 1007.6
20260504001103 56 244 2.6 20.9 0.00 0.00 0.00 57 1007.6
20260504000903 56 231 3.5 20.9 0.00 0.00 0.00 57 1007.5
20260504000703 56 163 5.2 20.9 0.00 0.00 0.00 56 1007.6
20260504000502 56 179 3.5 20.9 0.00 0.00 0.00 56 1007.6
20260504000302 56 227 3.5 12.2 0.00 0.00 0.00 57 1007.5
20260503235901 56 227 4.3 10.4 0.00 0.00 0.00 56 1007.6
20260503235701 56 210 5.2 10.4 0.00 0.00 0.00 56 1007.7
20260503235501 56 215 4.3 10.4 0.00 0.00 0.00 56 1007.7
20260503235301 56 192 3.5 9.6 0.00 0.00 0.00 57 1007.7
20260503235100 56 218 4.3 11.3 0.00 0.00 0.00 56 1007.7
20260503234900 56 254 3.5 13.9 0.00 0.00 0.00 56 1007.8
20260503234700 56 260 4.3 15.6 0.00 0.00 0.00 57 1007.8
20260503234459 56 227 4.3 15.6 0.00 0.00 0.00 57 1007.8
20260503234259 56 196 4.3 15.6 0.00 0.00 0.00 57 1007.8
20260503234059 56 173 5.2 15.6 0.00 0.00 0.00 57 1007.8
20260503233858 56 166 4.3 15.6 0.00 0.00 0.00 57 1007.8
20260503233658 56 225 4.3 13.9 0.00 0.00 0.00 57 1007.8
20260503233458 56 225 3.5 13.9 0.00 0.00 0.00 57 1007.8
20260503233258 56 210 5.2 13.9 0.00 0.00 0.00 57 1007.8
20260503233057 56 242 2.6 14.8 0.00 0.00 0.00 57 1007.9
20260503232857 56 222 3.5 14.8 0.00 0.00 0.00 58 1008.0
20260503232657 56 185 5.2 14.8 0.00 0.00 0.00 57 1007.9
20260503232456 56 191 6.1 14.8 0.00 0.00 0.00 57 1007.9
20260503232256 56 236 4.3 14.8 0.00 0.00 0.00 57 1008.0
20260503232056 56 240 4.3 13.0 0.00 0.00 0.00 58 1007.9
20260503231855 56 131 3.5 13.0 0.00 0.00 0.00 57 1008.0
20260503231655 56 218 2.6 13.0 0.00 0.00 0.00 58 1008.0
20260503231455 56 235 2.6 13.0 0.00 0.00 0.00 58 1008.0
20260503231255 56 185 5.2 13.0 0.00 0.00 0.00 58 1007.9
20260503231054 56 198 4.3 13.0 0.00 0.00 0.00 59 1008.0
20260503230854 56 226 4.3 13.0 0.00 0.00 0.00 58 1008.0
20260503230654 56 225 4.3 13.0 0.00 0.00 0.00 59 1008.0
20260503230453 56 190 4.3 13.0 0.00 0.00 0.00 59 1008.0
20260503230253 56 213 4.3 13.0 0.00 0.00 0.00 60 1008.1
20260503230053 56 183 4.3 11.3 0.00 0.00 0.00 59 1008.0
20260503225852 56 198 4.3 11.3 0.00 0.00 0.00 60 1008.1
20260503225652 56 202 5.2 11.3 0.00 0.00 0.00 60 1008.2
20260503225452 56 213 5.2 11.3 0.00 0.00 0.00 60 1008.2
20260503225252 56 198 4.3 11.3 0.00 0.00 0.00 61 1008.2
20260503225051 56 245 4.3 11.3 0.00 0.00 0.00 62 1008.2
20260503224851 56 213 3.5 11.3 0.00 0.00 0.00 63 1008.1
20260503224651 56 204 2.6 10.4 0.00 0.00 0.00 63 1008.2
20260503224450 56 150 2.6 10.4 0.00 0.00 0.00 63 1008.2
20260503224250 56 172 3.5 10.4 0.00 0.00 0.00 63 1008.3
20260503224050 56 198 3.5 10.4 0.00 0.00 0.00 64 1008.3
20260503223849 56 224 1.7 7.0 0.00 0.00 0.00 65 1008.4
20260503223649 55 191 0.9 6.1 0.00 0.00 0.00 65 1008.3
20260503223449 55 178 2.6 7.8 0.00 0.00 0.00 65 1008.3
20260503223249 55 213 2.6 11.3 0.00 0.00 0.00 65 1008.4
20260503223048 55 177 1.7 11.3 0.00 0.00 0.00 66 1008.5
20260503222848 55 154 2.6 11.3 0.00 0.00 0.00 66 1008.5
20260503222648 55 196 1.7 11.3 0.00 0.00 0.00 66 1008.4
20260503222447 55 199 2.6 11.3 0.00 0.00 0.00 66 1008.5
20260503222247 55 224 2.6 11.3 0.00 0.00 0.00 67 1008.5
20260503222047 55 230 2.6 7.8 0.00 0.00 0.00 68 1008.5
20260503221846 55 191 2.6 7.8 0.00 0.00 0.00 68 1008.5
20260503221646 55 201 2.6 7.8 0.00 0.00 0.00 68 1008.4
20260503221446 55 219 3.5 7.8 0.00 0.00 0.00 68 1008.5
20260503221246 54 192 3.5 7.8 0.00 0.00 0.00 69 1008.4
20260503221045 54 214 2.6 7.0 0.00 0.00 0.00 71 1008.4
20260503220845 54 232 2.6 7.0 0.00 0.00 0.00 71 1008.5
20260503220645 54 225 3.5 10.4 0.00 0.00 0.00 71 1008.4
20260503220444 54 231 2.6 10.4 0.00 0.00 0.00 72 1008.4
20260503220244 54 197 2.6 10.4 0.00 0.00 0.00 73 1008.3
20260503220044 54 196 2.6 10.4 0.00 0.00 0.00 74 1008.3
20260503215843 53 203 3.5 10.4 0.00 0.00 0.00 74 1008.3
20260503215643 53 203 2.6 10.4 0.00 0.00 0.00 74 1008.4
20260503215443 53 212 1.7 6.1 0.00 0.00 0.00 74 1008.4
20260503215242 53 257 0.9 7.8 0.00 0.00 0.00 75 1008.5
20260503215042 53 231 0.9 8.7 0.00 0.00 0.00 75 1008.5
20260503214842 53 223 1.7 8.7 0.00 0.00 0.00 74 1008.5
20260503214642 53 207 3.5 8.7 0.00 0.00 0.00 73 1008.4
20260503214441 53 217 3.5 8.7 0.00 0.00 0.00 73 1008.5
20260503214241 53 152 2.6 8.7 0.00 0.00 0.00 72 1008.6
20260503214041 54 74 0.9 8.7 0.00 0.00 0.00 73 1008.7
20260503213840 54 351 1.7 8.7 0.00 0.00 0.00 72 1008.7
20260503213640 54 337 2.6 8.7 0.00 0.00 0.00 72 1008.7
20260503213440 54 264 1.7 8.7 0.00 0.00 0.00 71 1008.7
20260503213240 54 218 1.7 8.7 0.00 0.00 0.00 72 1008.7
20260503213039 54 118 0.9 10.4 0.00 0.00 0.00 72 1008.8
20260503212839 54 128 1.7 10.4 0.00 0.00 0.00 72 1008.7
20260503212639 54 69 2.6 10.4 0.00 0.00 0.00 71 1008.7
20260503212438 54 135 3.5 10.4 0.00 0.00 0.00 72 1008.6
20260503212238 54 159 2.6 10.4 0.00 0.00 0.00 70 1008.6
20260503212038 54 148 1.7 7.0 0.00 0.00 0.00 71 1008.7
20260503211837 54 305 3.5 7.0 0.00 0.00 0.00 71 1008.7
20260503211637 54 130 3.5 7.0 0.00 0.00 0.00 71 1008.8
20260503211437 54 102 1.7 7.0 0.00 0.00 0.00 73 1008.7
20260503211236 54 215 0.9 10.4 0.00 0.00 0.00 72 1008.7
20260503211036 54 245 0.9 10.4 0.00 0.00 0.00 72 1008.7
20260503210836 54 244 2.6 10.4 0.00 0.00 0.00 72 1008.6
20260503210636 54 219 2.6 10.4 0.00 0.00 0.00 72 1008.6
20260503210435 54 216 3.5 10.4 0.00 0.00 0.00 72 1008.5
20260503210235 54 206 3.5 8.7 0.00 0.00 0.00 71 1008.5
20260503210035 54 222 2.6 7.8 0.00 0.00 0.00 72 1008.6
20260503205834 54 220 2.6 7.8 0.00 0.00 0.00 70 1008.5
20260503205634 54 222 1.7 7.8 0.00 0.00 0.00 70 1008.5
20260503205434 55 239 2.6 11.3 0.00 0.00 0.00 70 1008.6
20260503205234 55 210 2.6 12.2 0.00 0.00 0.00 70 1008.5
20260503205033 55 187 3.5 12.2 0.00 0.00 0.00 69 1008.5
20260503204833 55 192 3.5 12.2 0.00 0.00 0.00 69 1008.5
20260503204633 55 199 4.3 16.5 0.00 0.00 0.00 69 1008.6
20260503204432 56 198 4.3 16.5 0.00 0.00 0.00 67 1008.6
20260503204232 56 240 5.2 16.5 0.00 0.00 0.00 67 1008.5
20260503204032 57 217 5.2 16.5 0.00 0.00 0.00 63 1008.6
20260503203831 58 141 6.1 16.5 0.00 0.00 0.00 60 1008.5
20260503203631 58 170 3.5 13.9 0.00 0.00 0.00 59 1008.5
20260503203431 58 165 2.6 21.7 0.00 0.00 0.00 57 1008.4
20260503203230 58 123 1.7 21.7 0.00 0.00 0.00 57 1008.3
20260503203030 58 273 3.5 21.7 0.00 0.00 0.00 56 1008.3
20260503202830 58 200 6.1 21.7 0.00 0.00 0.00 56 1008.2
20260503202630 58 278 6.1 21.7 0.00 0.00 0.00 55 1008.2
20260503202429 59 181 7.0 17.4 0.00 0.00 0.00 55 1008.2
20260503202229 59 148 7.0 17.4 0.00 0.00 0.00 54 1008.2
20260503202029 59 174 7.0 16.5 0.00 0.00 0.00 54 1008.2
20260503201828 59 238 6.1 16.5 0.00 0.00 0.00 55 1008.1
20260503201628 59 225 4.3 17.4 0.00 0.00 0.00 55 1008.1
20260503201428 60 220 5.2 17.4 0.00 0.00 0.00 55 1008.2
20260503201227 60 275 6.1 17.4 0.00 0.00 0.00 55 1008.2
20260503201027 60 163 5.2 17.4 0.00 0.00 0.00 54 1008.1
20260503200827 60 224 5.2 13.9 0.00 0.00 0.00 55 1008.1
20260503200627 60 233 5.2 16.5 0.00 0.00 0.00 56 1008.1
20260503200426 59 218 5.2 17.4 0.00 0.00 0.00 56 1008.1
20260503200226 59 224 6.1 17.4 0.00 0.00 0.00 56 1008.1
20260503200026 58 240 6.1 17.4 0.00 0.00 0.00 57 1008.2
20260503195825 58 213 6.1 17.4 0.00 0.00 0.00 57 1008.2
20260503195625 58 193 4.3 17.4 0.00 0.00 0.00 58 1008.4
20260503195425 58 207 5.2 14.8 0.00 0.00 0.00 58 1008.5
20260503195224 57 229 5.2 14.8 0.00 0.00 0.00 58 1008.3
20260503195024 57 193 5.2 11.3 0.00 0.00 0.00 59 1008.4
20260503194824 57 182 5.2 16.5 0.00 0.00 0.00 60 1008.4
20260503194624 57 206 3.5 17.4 0.00 0.00 0.00 60 1008.4
20260503194423 57 225 3.5 17.4 0.00 0.00 0.00 60 1008.3
20260503194223 57 225 4.3 17.4 0.00 0.00 0.00 60 1008.3
20260503194023 57 216 4.3 17.4 0.00 0.00 0.00 60 1008.4
20260503193822 58 203 5.2 17.4 0.00 0.00 0.00 60 1008.4
20260503193622 58 233 3.5 13.0 0.00 0.00 0.00 58 1008.5
20260503193422 58 220 5.2 13.0 0.00 0.00 0.00 58 1008.5
20260503193221 58 212 3.5 13.9 0.00 0.00 0.00 58 1008.4
20260503193021 58 238 4.3 14.8 0.00 0.00 0.00 58 1008.5
20260503192821 58 218 6.1 14.8 0.00 0.00 0.00 58 1008.6
20260503192621 59 218 7.8 14.8 0.00 0.00 0.00 57 1008.6
20260503192420 59 211 6.1 14.8 0.00 0.00 0.00 56 1008.6
20260503192220 59 209 5.2 14.8 0.00 0.00 0.00 56 1008.5
20260503192020 60 229 7.0 14.8 0.00 0.00 0.00 54 1008.5
20260503191819 60 228 5.2 14.8 0.00 0.00 0.00 53 1008.5
20260503191619 60 212 6.1 14.8 0.00 0.00 0.00 53 1008.5
20260503191419 61 230 3.5 14.8 0.00 0.00 0.00 52 1008.6
20260503191218 61 218 4.3 14.8 0.00 0.00 0.00 51 1008.5
20260503191018 61 156 5.2 14.8 0.00 0.00 0.00 51 1008.5
20260503190818 60 204 5.2 14.8 0.00 0.00 0.00 50 1008.6
20260503190618 60 220 6.1 14.8 0.00 0.00 0.00 50 1008.6
20260503190417 60 219 5.2 13.0 0.00 0.00 0.00 51 1008.7
20260503190217 60 220 4.3 13.0 0.00 0.00 0.00 51 1008.7
20260503190017 60 209 5.2 13.0 0.00 0.00 0.00 52 1008.6
20260503185816 60 236 5.2 13.0 0.00 0.00 0.00 52 1008.7
20260503185616 59 237 4.3 13.0 0.00 0.00 0.00 52 1008.7
20260503185416 59 193 4.3 13.9 0.00 0.00 0.00 53 1008.8
20260503185215 59 179 3.5 13.9 0.00 0.00 0.00 53 1008.8
20260503185015 59 227 4.3 13.9 0.00 0.00 0.00 53 1008.9
20260503184815 59 245 5.2 14.8 0.00 0.00 0.00 53 1008.9
20260503184615 60 220 6.1 14.8 0.00 0.00 0.00 52 1008.9
20260503184414 60 236 5.2 14.8 0.00 0.00 0.00 52 1009.0
20260503184214 60 220 6.1 14.8 0.00 0.00 0.00 52 1009.0
20260503184014 60 193 6.1 14.8 0.00 0.00 0.00 53 1009.2
20260503183813 60 189 5.2 13.9 0.00 0.00 0.00 54 1009.1
20260503183613 60 206 7.0 13.9 0.00 0.00 0.00 54 1009.1
20260503183413 60 198 7.0 14.8 0.00 0.00 0.00 53 1009.1
20260503183212 61 209 5.2 14.8 0.00 0.00 0.00 53 1009.1
20260503183012 61 204 6.1 14.8 0.00 0.00 0.00 53 1009.1
20260503182812 61 218 6.1 14.8 0.00 0.00 0.00 52 1009.3
20260503182612 60 205 4.3 15.6 0.00 0.00 0.00 55 1009.1
20260503182411 60 177 4.3 19.1 0.00 0.00 0.00 55 1009.1
20260503182211 59 198 5.2 19.1 0.00 0.00 0.00 55 1009.2
20260503182011 59 203 6.1 19.1 0.00 0.00 0.00 56 1009.3
20260503181810 59 217 6.1 19.1 0.00 0.00 0.00 55 1009.4
20260503181610 59 208 6.1 19.1 0.00 0.00 0.00 54 1009.6
20260503181410 59 238 4.3 17.4 0.00 0.00 0.00 55 1009.7
20260503181209 59 212 5.2 17.4 0.00 0.00 0.00 54 1009.6
20260503181009 60 209 5.2 17.4 0.00 0.00 0.00 54 1009.7
20260503180809 60 197 7.0 17.4 0.00 0.00 0.00 53 1009.7
20260503180608 60 220 7.0 17.4 0.00 0.00 0.00 52 1009.7
20260503180408 60 211 7.0 13.0 0.00 0.00 0.00 52 1009.7
20260503180208 61 186 5.2 20.9 0.00 0.00 0.00 53 1009.8
20260503180008 61 189 6.1 20.9 0.00 0.00 0.00 52 1009.7
20260503175807 60 214 6.1 20.9 0.00 0.00 0.00 54 1009.6
20260503175607 60 232 7.0 20.9 0.00 0.00 0.00 53 1009.7
20260503175407 60 211 5.2 20.9 0.00 0.00 0.00 54 1009.6
20260503175206 60 220 5.2 14.8 0.00 0.00 0.00 53 1009.7
20260503175006 60 216 4.3 14.8 0.00 0.00 0.00 53 1009.7
20260503174806 59 208 6.1 18.2 0.00 0.00 0.00 53 1009.8
20260503174605 59 206 7.0 20.9 0.00 0.00 0.00 53 1009.8
20260503174405 59 200 7.0 20.9 0.00 0.00 0.00 53 1009.9
20260503174205 59 222 6.1 20.9 0.00 0.00 0.00 53 1009.9
20260503174005 59 227 7.0 20.9 0.00 0.00 0.00 53 1010.0
20260503173804 59 215 8.7 20.9 0.00 0.00 0.00 53 1009.9
20260503173604 59 211 6.1 13.9 0.00 0.00 0.00 52 1009.9
20260503173404 59 218 6.1 13.9 0.00 0.00 0.00 52 1010.0
20260503173203 59 263 6.1 13.9 0.00 0.00 0.00 51 1010.0
20260503173003 59 237 7.0 13.9 0.00 0.00 0.00 51 1010.0
20260503172803 59 220 7.0 13.9 0.00 0.00 0.00 50 1010.1
20260503172603 59 211 6.1 13.9 0.00 0.00 0.00 49 1010.1
20260503172402 59 174 7.0 14.8 0.00 0.00 0.00 48 1010.0
20260503172202 59 195 5.2 14.8 0.00 0.00 0.00 48 1010.0
20260503172002 60 192 5.2 14.8 0.00 0.00 0.00 49 1009.9
20260503171801 59 192 6.1 14.8 0.00 0.00 0.00 49 1010.1
20260503171601 59 227 6.1 13.9 0.00 0.00 0.00 50 1010.0
20260503171401 59 236 5.2 13.9 0.00 0.00 0.00 49 1010.1
20260503171200 59 246 5.2 13.9 0.00 0.00 0.00 49 1010.1
20260503171000 59 238 6.1 13.9 0.00 0.00 0.00 49 1010.1
20260503170800 59 205 6.1 13.9 0.00 0.00 0.00 49 1010.1
20260503170559 59 185 5.2 13.9 0.00 0.00 0.00 49 1010.0
20260503170359 59 186 6.1 13.9 0.00 0.00 0.00 50 1010.2
20260503170159 59 207 7.0 13.9 0.00 0.00 0.00 49 1010.3
20260503160150 55 208 5.2 12.2 0.00 0.00 0.00 46 1011.1
20260503150942 53 189 5.2 13.0 0.00 0.00 0.00 47 1012.0
20260503150742 53 222 4.3 13.0 0.00 0.00 0.00 47 1012.0
20260503150541 53 230 4.3 10.4 0.00 0.00 0.00 49 1012.0
20260503150341 53 219 3.5 10.4 0.00 0.00 0.00 50 1012.0
20260503150141 52 215 5.2 10.4 0.00 0.00 0.00 48 1012.1
20260503140132 46 210 0.9 7.0 0.00 0.00 0.00 64 1012.9
20260503131410 45 98 0.9 5.2 0.00 0.00 0.00 68 1013.1
20260503131209 45 91 1.7 4.3 0.00 0.00 0.00 68 1013.0
20260503131009 45 231 1.7 5.2 0.00 0.00 0.00 68 1013.0
20260503130809 45 172 0.9 10.4 0.00 0.00 0.00 68 1013.0
20260503130608 45 213 1.7 10.4 0.00 0.00 0.00 68 1012.9
20260503130408 45 225 1.7 10.4 0.00 0.00 0.00 68 1013.0
20260503130208 45 158 1.7 10.4 0.00 0.00 0.00 68 1013.0
20260503120159 38 216 1.7 9.6 0.00 0.00 0.00 79 1013.0
20260503110751 35 193 2.6 7.8 0.00 0.00 0.00 86 1012.8
20260503110550 35 196 1.7 7.8 0.00 0.00 0.00 87 1012.7
20260503110350 35 199 1.7 7.8 0.00 0.00 0.00 87 1012.7
20260503110150 35 169 1.7 7.8 0.00 0.00 0.00 87 1012.7
20260503100141 34 218 0.9 5.2 0.00 0.00 0.00 84 1012.7
20260503090332 35 194 1.7 5.2 0.00 0.00 0.00 80 1013.2
20260503090132 35 153 0.9 5.2 0.00 0.00 0.00 79 1013.2
20260503081525 35 210 1.7 5.2 0.00 0.00 0.00 74 1013.4
20260503081325 35 205 1.7 5.2 0.00 0.00 0.00 74 1013.4
20260503081124 35 212 0.9 5.2 0.00 0.00 0.00 75 1013.4
20260503080924 35 223 0.9 4.3 0.00 0.00 0.00 75 1013.4
20260503080724 35 199 1.7 4.3 0.00 0.00 0.00 75 1013.4
20260503080523 35 193 1.7 4.3 0.00 0.00 0.00 75 1013.4
20260503080323 35 203 0.9 4.3 0.00 0.00 0.00 75 1013.4
20260503080123 35 191 0.9 2.6 0.00 0.00 0.00 75 1013.4
20260503072918 35 199 0.9 5.2 0.00 0.00 0.00 73 1013.6
20260503072718 35 184 0.9 5.2 0.00 0.00 0.00 72 1013.6
20260503072517 35 201 0.9 5.2 0.00 0.00 0.00 72 1013.6
20260503072317 35 189 1.7 5.2 0.00 0.00 0.00 73 1013.6
20260503072117 35 233 0.9 5.2 0.00 0.00 0.00 73 1013.6
20260503071916 35 207 0.9 4.3 0.00 0.00 0.00 73 1013.6
20260503071717 35 258 0.9 2.6 0.00 0.00 0.00 73 1013.6
20260503071516 35 256 0.9 2.6 0.00 0.00 0.00 72 1013.5
20260503071316 35 234 0.9 2.6 0.00 0.00 0.00 72 1013.6
20260503071115 35 264 0.9 6.1 0.00 0.00 0.00 72 1013.6
20260503070915 35 298 0.0 6.1 0.00 0.00 0.00 72 1013.6
20260503070715 35 291 0.9 6.1 0.00 0.00 0.00 71 1013.6
20260503070514 35 213 0.9 6.1 0.00 0.00 0.00 71 1013.7
20260503070314 35 218 0.9 6.1 0.00 0.00 0.00 71 1013.7
20260503070114 34 110 0.9 3.5 0.00 0.00 0.00 70 1013.7
20260503060305 35 159 0.0 1.7 0.00 0.00 0.00 67 1014.0
20260503060105 35 144 0.0 1.7 0.00 0.00 0.00 67 1014.0
20260503055103 35 347 0.9 3.5 0.00 0.00 0.00 68 1014.1
20260503054903 35 141 0.9 2.6 0.00 0.00 0.00 68 1014.1
20260503054703 35 236 0.0 2.6 0.00 0.00 0.00 69 1014.1
20260503054502 35 237 0.0 1.7 0.00 0.00 0.00 69 1014.1
20260503054302 35 244 0.0 2.6 0.00 0.00 0.00 69 1014.2
20260503054102 35 215 0.0 2.6 0.00 0.00 0.00 69 1014.2
20260503053901 35 109 0.9 2.6 0.00 0.00 0.00 69 1014.2
20260503053701 35 120 0.9 2.6 0.00 0.00 0.00 69 1014.2
20260503053501 35 145 0.0 2.6 0.00 0.00 0.00 69 1014.2
20260503053300 35 108 0.9 3.5 0.00 0.00 0.00 69 1014.2
20260503053100 35 17 0.9 3.5 0.00 0.00 0.00 69 1014.2
20260503052900 35 262 0.9 3.5 0.00 0.00 0.00 70 1014.2
20260503052700 35 246 0.9 3.5 0.00 0.00 0.00 70 1014.3
20260503052459 35 132 0.9 3.5 0.00 0.00 0.00 70 1014.3
20260503052259 35 144 0.9 3.5 0.00 0.00 0.00 70 1014.3
20260503052059 34 183 0.0 3.5 0.00 0.00 0.00 70 1014.4
20260503051858 34 156 0.9 3.5 0.00 0.00 0.00 70 1014.3
20260503051658 34 227 0.9 3.5 0.00 0.00 0.00 71 1014.3
20260503051458 34 242 0.0 3.5 0.00 0.00 0.00 71 1014.4
20260503051258 34 263 0.0 3.5 0.00 0.00 0.00 71 1014.4
20260503051057 34 263 0.0 1.7 0.00 0.00 0.00 71 1014.4
20260503050857 34 263 0.0 1.7 0.00 0.00 0.00 71 1014.4
20260503050657 34 263 0.0 1.7 0.00 0.00 0.00 71 1014.4
20260503050456 34 263 0.0 1.7 0.00 0.00 0.00 71 1014.4
20260503050256 34 263 0.0 1.7 0.00 0.00 0.00 71 1014.4
20260503050056 34 263 0.0 1.7 0.00 0.00 0.00 71 1014.4
20260503045855 34 263 0.0 1.7 0.00 0.00 0.00 71 1014.4
20260503045655 34 263 0.0 1.7 0.00 0.00 0.00 72 1014.4
20260503045455 34 263 0.0 1.7 0.00 0.00 0.00 72 1014.3
20260503045255 34 263 0.0 1.7 0.00 0.00 0.00 72 1014.3
20260503045054 34 263 0.0 1.7 0.00 0.00 0.00 72 1014.3
20260503044854 34 263 0.0 1.7 0.00 0.00 0.00 72 1014.3
20260503044654 34 263 0.0 0.9 0.00 0.00 0.00 73 1014.3
20260503044453 34 263 0.0 0.9 0.00 0.00 0.00 73 1014.3
20260503044253 34 263 0.0 0.9 0.00 0.00 0.00 73 1014.3